Regional Weather Roundup
Issued by NWS

Home | Current Version | Previous Version | Graphics & Text | Print | Product List | Glossary On
Versions: 1 2 3 4 5 6 7 8 9 10 11 12 13 14 15 16 17 18 19 20 21 22 23 24 25 26 27 28 29 30 31 32 33 34 35 36 37 38 39 40 41 42 43 44 45 46 47 48 49 50
154
ASUS43 KLOT 190008
RWRIL

ILLINOIS REGIONAL WEATHER ROUNDUP
NATIONAL WEATHER SERVICE CHICAGO/ROMEOVILLE IL
600 PM CST SAT NOV 18 2017

NOTE: "FAIR" INDICATES FEW OR NO CLOUDS BELOW 12,000 FEET WITH NO
SIGNIFICANT WEATHER AND/OR OBSTRUCTIONS TO VISIBILITY.

* THESE STATIONS ARE NOT UNDER NWS QUALITY CONTROL. THEY ALSO MAY NOT
  REPORT WEATHER SUCH AS PRECIPITATION OR FOG.

ILZ001-002-007-009-015-016-024-190100-
NORTHWEST ILLINOIS

CITY           SKY/WX    TMP DP  RH WIND       PRES   REMARKS
MOLINE         CLEAR     41  32  70 NW17G25   29.81R
6HR MIN TEMP:  40; 6HR MAX TEMP:  42;

STERLING*      PTCLDY    35  32  88 W8        29.78R WCI  29
SAVANNA*       CLEAR     38  32  78 NW8       29.78R WCI  32
$$

ILZ003-004-008-010-011-017-018-190100-
NORTH CENTRAL ILLINOIS

CITY           SKY/WX    TMP DP  RH WIND       PRES   REMARKS
ROCKFORD       PTCLDY    36  30  79 NW12      29.75R WCI  28
6HR MIN TEMP:  36; 6HR MAX TEMP:  38; 6HR PCP: TRACE;

FREEPORT*      CLEAR     35  31  86 NW9       29.77R WCI  27
ROCHELLE*      CLOUDY    37  32  84 NW7       29.75R WCI  31
DE KALB*       CLOUDY    37  33  84 NW15      29.72R WCI  28
PERU*          MOCLDY    37  32  84 NW13      29.77R WCI  28
$$

ILZ005-006-012>014-019>023-190100-
NORTHEAST ILLINOIS

CITY           SKY/WX    TMP DP  RH WIND       PRES   REMARKS
CHICAGO-OHARE  CLOUDY    40  30  67 N25G32    29.66R
6HR MIN TEMP:  35; 6HR MAX TEMP:  40; 6HR PCP:  0.15;

CHICAGO-MIDWAY CLOUDY    40  34  79 NW17G25   29.66R
6HR MIN TEMP:  36; 6HR MAX TEMP:  41; 6HR PCP:  0.10;

AURORA         CLOUDY    39  33  79 NW20      29.70R WCI  29
6HR MIN TEMP:  34; 6HR MAX TEMP:  39; 6HR PCP:  0.08;

LANSING*       CLOUDY    39  35  86 NW13G18   29.64R WCI  32
JOLIET*        CLOUDY    40  35  79 NW8G17    29.69R
WAUKEGAN       CLOUDY    39  31  72 N12G22    29.67R WCI  32
6HR MIN TEMP:  34; 6HR MAX TEMP:  39; 6HR PCP:  0.06;

DUPAGE AIRPORT CLOUDY    39  33  79 NW20G28   29.68R WCI  29
6HR MIN TEMP:  33; 6HR MAX TEMP:  39; 6HR PCP:  0.12;

KANKAKEE*      CLOUDY    39  35  85 NW20      29.67R WCI  30
WHEELING       CLOUDY    40  33  76 N18G28    29.68R
6HR MIN TEMP:  35; 6HR MAX TEMP:  40; 6HR PCP:  0.10;

MORRIS*        CLOUDY    38  34  83 NW12G18   29.70R WCI  31
ROMEOVILLE*    CLOUDY    39  33  81 N17G24    29.68R WCI  29
NORTHERLY ISL    N/A     40  32  73 NW17        N/A
$$

LMZ740>746-190100-
SOUTHERN LAKE MICHIGAN

STATION/POSITION SKY/WX   TEMP    WIND        PRES    VSBY  WAVE
                          AIR SEA DIR/SP/G                  HT/PER
                          (F)     (DEG/KT/KT) (MB)    (MI)  (FT/S)
SOUTHERN BUOY              42 49  360/ 29/ 35 1000.4         10/ 8
HARRISON CRIB              41     330/ 26/ 30   N/A
BURNHAM HARBOR             40     340/  8/ 21   N/A
BURNS HARBOR               43     340/ 28/ 38 1002.0R
MICHIGAN CITY              42     330/ 41/ 44   N/A
$$

ILZ025>027-034>036-040-047-049-050-058-095>099-190100-
WEST-CENTRAL ILLINOIS

CITY           SKY/WX    TMP DP  RH WIND       PRES   REMARKS
QUINCY         PTCLDY    40  32  73 NW14      29.88R
GALESBURG*     PTCLDY    38  35  89 W15       29.83R WCI  29
MACOMB*        CLEAR     39  34  81 NW16      29.86R WCI  30
JACKSONVILLE*  MOCLDY    40  34  79 NW16G24   29.83R
PITTSFIELD*    CLOUDY    42  34  73 W13G18    29.88R
$$

ILZ028>032-037-038-041>044-048-051>054-059>061-190100-
CENTRAL ILLINOIS

CITY           SKY/WX    TMP DP  RH WIND       PRES   REMARKS
PONTIAC        CLOUDY    39  37  91 NW21G28   29.73R WCI  29
BLOOMINGTON    CLOUDY    38  34  85 NW18G26   29.74R WCI  28
DECATUR        CLOUDY    41  40  96 NW21G29   29.75R
PEORIA         CLOUDY    39  34  82 NW7G20    29.79R WCI  34
6HR MIN TEMP:  35; 6HR MAX TEMP:  41; 6HR PCP:  0.18;

LACON*         PTCLDY    37  33  87 NW8       29.78R WCI  31
LINCOLN*       MOCLDY    40  37  86 NW9G20    29.77R
SPRINGFIELD    CLOUDY    41  36  82 NW15      29.80R
6HR MIN TEMP:  36; 6HR MAX TEMP:  43; 6HR PCP:  0.11;

TAYLORVILLE    CLOUDY    41  37  85 NW15G25   29.78R
6HR MIN TEMP:  35; 6HR MAX TEMP:  43; 6HR PCP:  0.08;

$$

ILZ033-039-045-046-055>057-062-063-190100-
EAST-CENTRAL ILLINOIS

CITY           SKY/WX    TMP DP  RH WIND       PRES   REMARKS
CHAMPAIGN      CLOUDY    40  37  89 NW24G31   29.70R
DANVILLE*      CLOUDY    38  36  92 NW22G29   29.62R WCI  28
RANTOUL*       CLOUDY    41  38  88 NW18G26   29.69R
MATTOON        CLOUDY    40  38  93 NW21G31   29.71R
PARIS*         CLOUDY    38  37  97 NW17G35   29.67R WCI  29
$$

ILZ079-100>102-190100-
SOUTHWEST ILLINOIS

CITY           SKY/WX    TMP DP  RH WIND       PRES   REMARKS
ALTON          CLOUDY    41  39  93 NW16G25   29.84R
BELLEVILLE     CLOUDY    43  39  87 NW13G20   29.83R
CAHOKIA*       CLOUDY    44  37  76 NW20G37   29.86R
SPARTA*        CLOUDY    43  40  89 NW14G22   29.84R
$$

ILZ064>066-069>071-074>076-080>082-084>086-088>090-092>094-190100-
SOUTH-CENTRAL ILLINOIS

CITY           SKY/WX    TMP DP  RH WIND       PRES   REMARKS
CARBONDALE     CLOUDY    42  40  92 NW17G26   29.82R
6HR MIN TEMP:  40; 6HR MAX TEMP:  70; 6HR PCP:  0.44;

CAIRO*         CLOUDY    44  38  78 NW17G25   29.84R
EFFINGHAM*     CLOUDY    41  40  95 W24       29.75R
MARION         DRIZZLE   41  41 100 NW14      29.82R
MT. VERNON     CLOUDY    40  38  93 VRB5      29.78R
CENTRALIA*     CLOUDY    42  41  95 NW18G24   29.78R
SALEM*         CLOUDY    42  39  89 NW18      29.77R
METROPOLIS*    CLOUDY    44  37  78 NW15G25   29.82R
$$

ILZ067-068-072-073-078-083-087-091-190100-
SOUTHEAST ILLINOIS

CITY           SKY/WX    TMP DP  RH WIND       PRES   REMARKS
LAWRENCEVILLE  LGT RAIN  38  35  89 NW23G30   29.70R WCI  27
FLORA*         CLOUDY    41  38  91 NW13G21     N/A
FAIRFIELD*     LGT RAIN  38  37  99 NW3       29.75R
HARRISBURG*    RAIN      40  38  91 NW17G26   29.79R
ROBINSON*      LGT RAIN  37  35  94 NW18      29.71R WCI  27
CARMI*         DRIZZLE   39  37  92 NW24G32   29.74R WCI  28
$$

ABBREVIATIONS USED IN REMARKS
   TC - TEMPERATURE IN CELSIUS
  WCI - WIND CHILL INDEX
   HX - HEAT INDEX
  VSB - VISIBILITY
$$





USA.gov is the U.S. government's official web portal to all federal, state and local government web resources and services.